sat.trackr.live / text

‹ back to catalog

STARLINK-31729

NORAD 59610 · 2024-080K

PAYLOAD ACTIVE UNKNOWN

§ Identity

Operator
Country
US
Launch date
2024-04-28
Launch site
AFETR
Launch vehicle
Mass (kg)
RCS (m²)

Purposes: comms

External: N2YO · Heavens-Above · Gunter

§ Orbital elements

Epoch: 2026-05-24T21:20:57.249600Z

Period
94.27 min
Inclination
43.0049°
Eccentricity
0.0001746
Mean motion
15.27561632 rev/d
Perigee alt
481.9 km
Apogee alt
484.3 km
Semi-major
6,861.2 km
B*
-7.1695e-5
RAAN
324.3554°
Arg perigee
273.0464°
Mean anomaly
87.0188°
Rev number
11,622

§ Raw data

STARLINK-317291 59610U 24080K   26144.88955150 -.00002234  00000+0 -71695-4 0  99972 59610  43.0049 324.3554 0001746 273.0464  87.0188 15.27561632116225

JSON: /api/v1/satellites/59610 · /tle

For live sub-satellite position, see the globe view (requires WebGL).

§ Visibility from observer

Set your observer location to see the next 7 days of passes ≥ 10°. The values pass through the URL so the page stays shareable.

No JS? Fill the form by hand. The geolocation button needs JavaScript.